Fountain Dale, PA

7:01 AM EDT on August 17, 2017 (GMT -0400)
Fountain Dale

Weather History for KRYT - April, 2014

Change the Weather History Date:

Tuesday, April 8, 2014

  Actual Average (KHGR) Record (KHGR)
Temperature  
Mean Temperature 50 °F -  
Max Temperature 57 °F 58 °F 82 °F (1999)
Min Temperature 43 °F 38 °F 26 °F (2007)
Degree Days  
Heating Degree Days 14    
Moisture  
Dew Point 41 °F    
Average Humidity 77    
Maximum Humidity 100    
Minimum Humidity 39    
Precipitation  
Precipitation 0.00 in - - ()
Sea Level Pressure  
Sea Level Pressure 29.54 in    
Wind  
Wind Speed 3 mph (West)    
Max Wind Speed 13 mph    
Max Gust Speed 29 mph    
Visibility 7 miles    
Events Fog    
Averages and records for this station are not official NWS values.
T = Trace of Precipitation, MM = Missing Value Source: NWS Daily Summary

Daily Weather History Graph

Daily Weather History Graph

Search for Another Location

Airport or City:

Trip Planner

Search our weather history database for the weather conditions in past years. The results will help you decide how hot, cold, wet, or windy it might be!

Date:

Astronomy

Apr. 08, 2014 Rise Set
Actual Time 6:42 AM EDT 7:40 PM EDT
Civil Twilight 6:15 AM EDT 8:08 PM EDT
Nautical Twilight 5:42 AM EDT 8:41 PM EDT
Astronomical Twilight 5:08 AM EDT 9:15 PM EDT
Moon 1:33 PM EDT (4/8) 2:53 AM EDT (4/8)
Length of Visible Light 13h 53m
Length of Day
12h 57m
Waxing Gibbous, 62% of the Moon is Illuminated
Apr 8
Waxing Gibbous
Apr 15
Full
Apr 22
Last Quarter
Apr 29
New
May 6
First Quarter

Hourly Weather History & Observations

Time (EDT) Temp. Windchill Dew Point Humidity Pressure Visibility Wind Dir Wind Speed Gust Speed Precip Events Conditions
12:08 AM 44.6 °F - 44.6 °F 100% 29.58 in 1.0 mi Calm Calm - N/A   Overcast
12:22 AM 46.4 °F - 46.4 °F 100% 29.56 in 3.0 mi Calm Calm - N/A   Overcast
12:53 AM 46.9 °F - 46.9 °F 100% 29.57 in 10.0 mi Calm Calm - N/A   Overcast
1:13 AM 46.4 °F - 46.4 °F 100% 29.54 in 6.0 mi Calm Calm - N/A   Overcast
1:29 AM 46.4 °F - 46.4 °F 100% 29.54 in 8.0 mi Calm Calm - N/A   Overcast
1:53 AM 46.0 °F 44.8 °F 45.0 °F 96% 29.55 in 9.0 mi Variable 3.5 mph - N/A   Overcast
2:01 AM 46.4 °F 44.3 °F 44.6 °F 93% 29.52 in 9.0 mi WSW 4.6 mph - N/A   Overcast
2:53 AM 46.0 °F - 45.0 °F 96% 29.50 in 10.0 mi Calm Calm - N/A   Overcast
3:53 AM 46.0 °F - 44.1 °F 93% 29.49 in 8.0 mi Calm Calm - N/A   Overcast
4:53 AM 46.0 °F - 44.1 °F 93% 29.49 in 10.0 mi Calm Calm - N/A   Overcast
5:10 AM 46.4 °F 43.5 °F 44.6 °F 93% 29.46 in 9.0 mi SSW 5.8 mph - N/A   Overcast
5:53 AM 46.9 °F - 45.0 °F 93% 29.47 in 5.0 mi Calm Calm - N/A   Overcast
6:16 AM 46.4 °F - 44.6 °F 93% 29.46 in 2.5 mi Calm Calm - N/A   Overcast
6:31 AM 46.4 °F - 44.6 °F 93% 29.45 in 4.0 mi Calm Calm - N/A   Overcast
6:53 AM 46.0 °F - 45.0 °F 96% 29.47 in 2.0 mi Calm Calm - N/A   Overcast
7:17 AM 46.4 °F - 44.6 °F 93% 29.46 in 1.5 mi Calm Calm - N/A   Overcast
7:32 AM 46.4 °F - 44.6 °F 93% 29.47 in 0.5 mi Calm Calm - N/A Fog Fog
7:39 AM 46.4 °F - 44.6 °F 93% 29.47 in 0.2 mi Calm Calm - N/A Fog Fog
7:53 AM 46.9 °F - 46.0 °F 97% 29.49 in 0.2 mi Calm Calm - N/A Fog Fog
8:28 AM 48.2 °F - 46.4 °F 93% 29.48 in 2.0 mi SW 4.6 mph - N/A   Mostly Cloudy
8:35 AM 50.0 °F - 46.4 °F 87% 29.48 in 9.0 mi WSW 8.1 mph - N/A   Scattered Clouds
8:53 AM 51.1 °F - 46.0 °F 83% 29.50 in 10.0 mi Variable 6.9 mph - N/A   Partly Cloudy
9:53 AM 53.1 °F - 43.0 °F 69% 29.51 in 10.0 mi SW 10.4 mph 19.6 mph N/A   Partly Cloudy
10:53 AM 57.0 °F - 39.0 °F 51% 29.52 in 10.0 mi West 12.7 mph 27.6 mph N/A   Scattered Clouds
11:53 AM 55.9 °F - 37.0 °F 49% 29.53 in 10.0 mi West 12.7 mph 25.3 mph N/A   Mostly Cloudy
12:53 PM 55.0 °F - 37.9 °F 53% 29.55 in 10.0 mi West 10.4 mph 28.8 mph N/A   Partly Cloudy
1:53 PM 55.9 °F - 37.9 °F 51% 29.58 in 10.0 mi WNW 11.5 mph 28.8 mph N/A   Partly Cloudy
2:53 PM 55.9 °F - 37.9 °F 51% 29.59 in 10.0 mi NW 10.4 mph 23.0 mph N/A   Mostly Cloudy
3:53 PM 55.9 °F - 36.0 °F 47% 29.60 in 10.0 mi WNW 11.5 mph 21.9 mph N/A   Mostly Cloudy
4:53 PM 57.0 °F - 35.1 °F 44% 29.60 in 10.0 mi WNW 8.1 mph 20.7 mph N/A   Mostly Cloudy
5:53 PM 57.0 °F - 33.1 °F 40% 29.62 in 10.0 mi West 10.4 mph - N/A   Partly Cloudy
6:53 PM 57.0 °F - 32.0 °F 39% 29.64 in 10.0 mi Variable 5.8 mph 16.1 mph N/A   Clear
7:53 PM 55.0 °F - 30.9 °F 40% 29.66 in 10.0 mi North 5.8 mph - N/A   Clear
8:53 PM 51.1 °F - 32.0 °F 48% 29.67 in 10.0 mi Calm Calm - N/A   Clear
9:53 PM 48.9 °F - 33.1 °F 54% 29.68 in 10.0 mi Calm Calm - N/A   Clear
10:53 PM 45.0 °F - 33.1 °F 63% 29.68 in 10.0 mi Calm Calm - N/A   Clear
11:53 PM 43.0 °F - 33.1 °F 68% 29.68 in 10.0 mi Calm Calm - N/A   Clear